Погода в Симбухове

Россия / Нижегородская область     54°31′56″N   44°58′02″E
В апреле 2022 года жителям России запретили посещать сайт meteo.paraplan.net по решению Генеральной прокуратуры. Аудитория сайта уменьшилась в 10 раз. Владельцы сайта не видят смысла в поддержке погодного сервера в таких условиях. Сайт будет закрыт в октябре.
темп.,
°C
ветер,
м/с
пор.,
м/с
влажн.,
%
обл.,
%
осадки,
мм/ч
давл.,
гПа
погр.,
м
29 сентября, чт
чт2900:00+11юв3694100 0.6 1004199
03:00+11вюв3495100 0.9 1005105
06:00+11с0096100 0.3 100510
09:00+12сз1193100 0.3 100794
12:00+15сз3485100 0.0 1008555
15:00+13сз359395 0.1 1010280
18:00+13ссз2390100 0.1 101363
21:00+11ссз229033 0.1 101520
30 сентября, пт
пт3000:00+10сз1191100 0.0 101711
03:00+10ссв1190100 0.0 101810
06:00+9в1193100 0.0 101910
09:00+13юв2384100 0.0 1020261
12:00+16ююв337084 0.0 1021792
15:00+17ю346489 0.0 10201014
18:00+13ю338184 0.0 102138
21:00+12ююв338468 0.0 102147
1 октября, сб
сб100:00+11ююв3689100 0.0 1021108
03:00+11ююв4986100 0.0 1021237
06:00+11ююв3892100 0.6 1021211
09:00+12ююв4988100 0.6 1021291
12:00+15ю5879100 0.1 1019453
15:00+15ю4986100 0.7 1018367
18:00+14ю51391100 3.9 1017526
21:00+14ююз41091100 5.1 1016337
2 октября, вс
вс200:00+13ююз379570 0.4 1015156
03:00+13ю3795100 0.4 1014176
06:00+13ю51294100 0.0 1013294
09:00+15ююз61387100 0.2 1012460
12:00+18юз61080100 0.4 1011718
15:00+17зюз498690 2.6 1010398
18:00+15з349373 2.1 101177
21:00+15з1192100 2.1 101121
3 октября, пн
пн300:00+13зюз1193100 0.0 101210
03:00+13юв0094100 0.0 101210
06:00+14юв489696 0.1 1011234
09:00+16ююв5108358 0.3 1011369
12:00+19ююв71361100 0.0 1011792
15:00+19ююв81557100 0.0 1011851
18:00+17ююв91651100 0.0 1012876
21:00+16ююв91651100 0.0 1013964